Hourly Data Report for July 07, 2021

FLIN FLON
MANITOBA
Current Station Operator: ECCC - MSC

54°41'00.000" N
101°41'00.000" W
303.90 m
5050919
71954
WFO

Download Data

Hourly Data (July 2021)
Hourly Data Report for July 7, 2021
TIME
LST
Temp Definition
°C
Dew Point Definition
°C
Rel Hum Definition
%
Precip. Amount Definition
mm

Wind Dir Definition
10's deg

Wind Spd Definition
km/h
Visibility Definition
km
Stn Press Definition
kPa
Hmdx Definition


Wind Chill Definition


Weather Definition


00:00 15.1 7.4 60 0.0 20 15   98.51     LegendNANA
01:00 14.7 6.9 59 0.0 20 15   98.49     LegendNANA
02:00 14.1 6.1 59 0.0 21 17   98.46     LegendNANA
03:00 13.5 5.4 58 0.0 19 13   98.43     LegendNANA
04:00 13.4 6.5 63 0.0 19 12   98.37     LegendNANA
05:00 13.2 7.3 67 0.0 20 13   98.34     LegendNANA
06:00 13.2 8.0 71 0.0 22 11   98.32     LegendNANA
07:00 14.2 8.8 70 0.0 20 10   98.30     LegendNANA
08:00 16.6 9.9 65 0.0 18 7   98.25     LegendNANA
09:00 19.7 9.3 51 0.0 22 18   98.21     LegendNANA
10:00 19.9 7.7 45 0.0 21 21   98.15     LegendNANA
11:00 20.8 8.6 45 0.0 21 19   98.10     LegendNANA
12:00 21.4 7.7 41 0.0 21 21   98.04     LegendNANA
13:00 20.7 7.7 43 0.0 19 18   97.97     LegendNANA
14:00 21.3 7.9 42 0.0 21 17   97.90     LegendNANA
15:00 21.5 8.2 43 0.0 22 12   97.87     LegendNANA
16:00 21.7 8.3 42 0.0 18 10   97.80     LegendNANA
17:00 21.8 9.4 45 0.0 21 12   97.76     LegendNANA
18:00 22.1 10.2 47 0.0 20 11   97.72     LegendNANA
19:00 21.7 11.5 52 0.0 20 12   97.67     LegendNANA
20:00 20.9 11.7 56 0.0 20 8   97.62     LegendNANA
21:00 19.1 12.4 65 0.0 22 8   97.61     LegendNANA
22:00 18.3 12.1 67 0.0 22 7   97.59     LegendNANA
23:00 16.9 11.6 71 0.0 21 9   97.58     LegendNANA

Notes on Data Quality.

Legend

  • E = Estimated
  • M = Missing
  • NA = Not Available*
  • [empty] = Indicates an unobserved value
Date modified: